Date,TemperatureHighF,TemperatureAvgF,TemperatureLowF,DewpointHighF,DewpointAvgF,DewpointLowF,HumidityHigh,HumidityAvg,HumidityLow,PressureMaxIn,PressureMinIn,WindSpeedMaxMPH,WindSpeedAvgMPH,GustSpeedMaxMPH,PrecipitationSumIn
2013-2-1,22.0,13.5,13.0,-99.9,-99.9,-99.9,0,0,100,30.31,29.86,33,-16,39,0.00
2013-2-2,24.0,12.4,14.0,-99.9,-99.9,-99.9,0,0,100,30.30,29.98,15,-68,21,0.00
2013-2-3,21.0,20.0,18.0,-99.9,-99.9,-99.9,0,0,100,30.01,29.90,0,-999,0,0.00
2013-2-4,24.0,13.3,19.0,-99.9,-99.9,-99.9,0,0,100,30.03,29.89,9,-575,11,0.00
2013-2-5,28.0,9.7,22.0,-99.9,-99.9,-99.9,0,0,100,29.95,29.87,9,-115,14,0.00
2013-2-6,29.0,19.4,20.0,-99.9,-99.9,-99.9,0,0,100,30.34,29.95,23,-22,27,0.00
2013-2-7,46.0,27.0,21.0,-99.9,-99.9,-99.9,0,0,100,30.31,29.87,10,-57,19,0.00
2013-2-8,42.0,26.7,26.0,-99.9,-99.9,-99.9,0,0,100,30.27,29.74,34,-52,41,0.00
2013-2-9,27.0,20.5,22.0,-99.9,-99.9,-99.9,0,0,100,30.44,30.27,25,-56,29,0.00
2013-2-10,50.0,29.7,21.0,-99.9,-99.9,-99.9,0,0,100,30.33,29.80,11,-29,24,0.00
2013-2-11,51.0,31.9,34.0,-99.9,-99.9,-99.9,0,0,100,29.91,29.67,35,-35,46,0.00
2013-2-12,33.0,22.5,28.0,-99.9,-99.9,-99.9,0,0,100,30.09,29.93,25,-21,33,0.00
2013-2-13,31.0,23.1,27.0,-99.9,-99.9,-99.9,0,0,100,29.94,29.79,10,-26,12,0.00
2013-2-14,40.0,29.0,27.0,-99.9,-99.9,-99.9,0,0,100,29.88,29.78,28,-38,34,0.00
2013-2-15,36.0,23.2,27.0,-99.9,-99.9,-99.9,0,0,100,30.12,29.89,28,-11,36,0.00
2013-2-16,27.0,19.1,22.0,-99.9,-99.9,-99.9,0,0,100,30.10,29.99,25,-4,28,0.00
2013-2-17,22.0,14.9,17.0,-99.9,-99.9,-99.9,0,0,100,30.25,29.99,23,2,26,0.00
2013-2-18,47.0,24.8,16.0,-99.9,-99.9,-99.9,0,0,100,30.26,29.74,15,-17,27,0.00
2013-2-19,49.0,26.0,19.0,-99.9,-99.9,-99.9,0,0,100,29.97,29.58,35,-58,42,0.00
2013-2-20,23.0,15.5,17.0,-99.9,-99.9,-99.9,0,0,100,30.22,29.97,34,-75,38,0.00
2013-2-21,23.0,16.5,18.0,-99.9,-99.9,-99.9,0,0,100,30.38,30.22,21,-79,27,0.00
2013-2-22,40.0,27.6,19.0,-99.9,-99.9,-99.9,0,0,100,30.29,29.93,11,-117,18,0.00
2013-2-23,38.0,27.0,30.0,-99.9,-99.9,-99.9,0,0,100,29.98,29.91,23,-93,26,0.00
2013-2-24,32.0,24.0,27.0,-99.9,-99.9,-99.9,0,0,100,30.16,29.92,20,-22,23,0.00
2013-2-25,35.0,25.8,26.0,-99.9,-99.9,-99.9,0,0,100,30.23,30.09,16,-83,21,0.00
2013-2-26,40.0,28.0,26.0,-99.9,-99.9,-99.9,0,0,100,30.12,29.53,14,-87,21,0.00
2013-2-27,44.0,31.7,34.0,-99.9,-99.9,-99.9,0,0,100,29.65,29.51,15,-56,22,0.00
2013-2-28,35.0,26.2,31.0,-99.9,-99.9,-99.9,0,0,100,29.90,29.60,24,4,29,0.00